Franklin D. Roosevelt (FDR) Lake Weather Center

Moon Phase Calendar



Franklin D. Roosevelt (FDR) Lake Water Level
Online Cameras

 


      

Current Conditions in Stevens
4/13/2024 6:43:29 PM

57°F
Feels Like 55
Clouds
Humidity
61%
Pressure
29.77"
Wind
3 mph (SW)
Dew Point
43°F
UV Index
0/10 (Low)
Visibility
6 mi

Hourly Forecast

Date & Time Sat, Apr 13
6:00 PM
Sat, Apr 13
7:00 PM
Sat, Apr 13
8:00 PM
Sat, Apr 13
9:00 PM
Sat, Apr 13
10:00 PM
Sat, Apr 13
11:00 PM
Sun, Apr 14
12:00 AM
Sun, Apr 14
1:00 AM
Sun, Apr 14
2:00 AM
Sun, Apr 14
3:00 AM
Sun, Apr 14
4:00 AM
Sun, Apr 14
5:00 AM
Sun, Apr 14
6:00 AM
Sun, Apr 14
7:00 AM
Sun, Apr 14
8:00 AM
Sun, Apr 14
9:00 AM
Sun, Apr 14
10:00 AM
Sun, Apr 14
11:00 AM
Sun, Apr 14
12:00 PM
Sun, Apr 14
1:00 PM
Sun, Apr 14
2:00 PM
Sun, Apr 14
3:00 PM
Sun, Apr 14
4:00 PM
Sun, Apr 14
5:00 PM
Sun, Apr 14
6:00 PM
Sun, Apr 14
7:00 PM
Sun, Apr 14
8:00 PM
Sun, Apr 14
9:00 PM
Sun, Apr 14
10:00 PM
Sun, Apr 14
11:00 PM
Mon, Apr 15
12:00 AM
Mon, Apr 15
1:00 AM
Mon, Apr 15
2:00 AM
Mon, Apr 15
3:00 AM
Mon, Apr 15
4:00 AM
Mon, Apr 15
5:00 AM
Mon, Apr 15
6:00 AM
Mon, Apr 15
7:00 AM
Mon, Apr 15
8:00 AM
Mon, Apr 15
9:00 AM
Mon, Apr 15
10:00 AM
Mon, Apr 15
11:00 AM
Mon, Apr 15
12:00 PM
Mon, Apr 15
1:00 PM
Mon, Apr 15
2:00 PM
Mon, Apr 15
3:00 PM
Mon, Apr 15
4:00 PM
Mon, Apr 15
5:00 PM
Condition
Clouds

Clouds

Clouds

Clouds

Clouds

Clouds

Clouds

Clouds

Clouds

Clouds

Clouds

Clouds

Clear

Clear

Clouds

Clouds

Clouds

Clouds

Clouds

Clouds

Clouds

Clouds

Clouds

Clouds

Clear

Clear

Clear

Clouds

Clouds

Clouds

Clouds

Clouds

Clouds

Clouds

Clouds

Clouds

Clouds

Clouds

Clouds

Clouds

Clouds

Clouds

Clouds

Clouds

Clouds

Clouds

Clouds

Clouds
Temperature 58°F57°F56°F54°F51°F49°F47°F46°F45°F44°F44°F43°F43°F45°F51°F57°F61°F65°F68°F69°F69°F70°F70°F68°F65°F59°F53°F51°F50°F50°F49°F49°F47°F46°F46°F44°F43°F45°F47°F50°F53°F55°F57°F59°F60°F61°F60°F59°F
Feels Like 56°F55°F54°F52°F50°F48°F46°F44°F43°F43°F42°F41°F41°F43°F50°F55°F59°F63°F66°F67°F68°F68°F68°F66°F63°F57°F51°F49°F48°F50°F49°F49°F46°F45°F44°F44°F43°F45°F46°F48°F50°F53°F55°F56°F58°F59°F58°F56°F
Cloudiness 53%47%45%40%33%29%96%86%74%55%44%37%6%6%15%18%21%18%11%20%24%21%18%16%8%8%9%16%24%37%100%98%95%95%96%97%100%100%100%100%98%89%37%34%34%32%27%38%
Visibility 6 mi6 mi6 mi6 mi6 mi6 mi6 mi6 mi6 mi6 mi6 mi6 mi6 mi6 mi6 mi6 mi6 mi6 mi6 mi6 mi6 mi6 mi6 mi6 mi6 mi6 mi6 mi6 mi6 mi6 mi6 mi6 mi6 mi6 mi6 mi6 mi6 mi6 mi6 mi6 mi6 mi6 mi6 mi6 mi6 mi6 mi6 mi6 mi
Precipitation 0%0%0%0%0%0%0%0%0%0%0%0%0%0%0%0%0%0%0%0%0%0%0%0%0%0%0%0%0%0%0%0%0%0%0%0%0%0%0%0%0%0%0%0%0%0%0%0%
Humidity 58%61%63%66%69%72%75%76%77%80%82%84%85%80%68%58%50%44%39%35%33%32%31%33%41%54%60%61%62%64%68%72%79%85%86%86%87%81%72%64%58%53%49%46%42%35%32%35%
Dew Point 43°F43°F43°F43°F42°F41°F38°F38°F38°F38°F38°F38°F38°F39°F41°F42°F42°F42°F41°F40°F39°F38°F37°F37°F40°F42°F39°F38°F37°F38°F39°F39°F40°F42°F41°F40°F38°F38°F38°F38°F38°F38°F38°F37°F36°F33°F30°F31°F
Pressure 29.77"29.77"29.77"29.8"29.8"29.83"29.83"29.83"29.83"29.83"29.83"29.83"29.83"29.83"29.8"29.8"29.77"29.77"29.74"29.74"29.71"29.68"29.68"29.65"29.65"29.68"29.71"29.74"29.74"29.74"29.74"29.74"29.74"29.77"29.77"29.8"29.83"29.85"29.85"29.85"29.85"29.85"29.83"29.83"29.83"29.83"29.8"29.83"
Wind Speed 3.6 mph3 mph2.4 mph3.1 mph3.3 mph3.9 mph3.5 mph4 mph4.4 mph3.4 mph4.1 mph3.9 mph4 mph4.1 mph3.2 mph2.8 mph2.2 mph1.8 mph2.4 mph3.8 mph4.9 mph5.7 mph6.7 mph7.8 mph6.2 mph4.2 mph3.6 mph3.2 mph3 mph2.8 mph2.4 mph2.8 mph3.4 mph3.5 mph3.5 mph2.9 mph2.2 mph1.9 mph3.3 mph3.9 mph5.4 mph6.2 mph6.9 mph8.3 mph8.7 mph9.4 mph11.8 mph9.8 mph
Wind
Direction
203°
SSW
215°
SW
268°
W
304°
NW
306°
NW
328°
NNW
346°
NNW
355°
N

N
18°
NNE

N
10°
N
13°
NNE
12°
NNE
35°
NE
64°
ENE
87°
E
120°
ESE
152°
SSE
169°
S
184°
S
196°
SSW
223°
SW
245°
WSW
245°
WSW
241°
WSW
254°
WSW
262°
W
244°
WSW
237°
WSW
251°
WSW
237°
WSW
226°
SW
215°
SW
198°
SSW
183°
S
198°
SSW
174°
S
158°
SSE
174°
S
169°
S
176°
S
179°
S
178°
S
189°
S
213°
SSW
226°
SW
213°
SSW

Daily Forecast

Date High Low Precip. Humidity
Today
Apr 13

Clouds
64 °F
39 °F
0%
44%
Sunday
Apr 14

Clouds
70 °F
43 °F
0%
39%
Monday
Apr 15

Clouds
61 °F
39 °F
0%
49%
Tuesday
Apr 16

Clouds
52 °F
34 °F
21%
27%
Wednesday
Apr 17

Rain
50 °F
30 °F
66%
40%
Thursday
Apr 18

Snow
49 °F
30 °F
89%
66%
Friday
Apr 19

Clear
50 °F
28 °F
0%
32%
Saturday
Apr 20

Clouds
55 °F
28 °F
0%
27%
Sunday
Apr 21

Rain
56 °F
33 °F
37%
45%
Monday
Apr 22

Clouds
63 °F
35 °F
0%
43%
Tuesday
Apr 23

Clouds
61 °F
39 °F
0%
40%
Wednesday
Apr 24

Clouds
67 °F
41 °F
0%
36%
Thursday
Apr 25

Clouds
71 °F
44 °F
0%
37%
Friday
Apr 26

Clouds
74 °F
47 °F
0%
33%
Saturday
Apr 27

Rain
59 °F
45 °F
100%
55%
Sunday
Apr 28

Rain
58 °F
40 °F
100%
52%

Temperature 8-14 Day Outlook



Precipitation 8-14 Day Outlook




Quick Links
Franklin D. Roosevelt (FDR) Lake News
Franklin D. Roosevelt (FDR) Lake Photos
Franklin D. Roosevelt (FDR) Lake Videos




About Us
Contact Us
Site Map
Search Site
Advertise With Us
   
FDR.USLakes.info
THE FRANKLIN D. ROOSEVELT (FDR) LAKE WEBSITE

Copyright 2024, Lakes Online
Privacy    |    Legal